Weather History for Moffett NAS, CA

Change the Weather History Date:

Thursday, January 3, 2013

  Actual Average Record
Temperature  
Mean Temperature 45 °F 50 °F  
Max Temperature 57 °F 58 °F 64 °F (2001)
Min Temperature 32 °F 42 °F 29 °F (1952)
Degree Days  
Heating Degree Days 20    
Month to date heating degree days 60  
Since 1 July heating degree days 826  
Cooling Degree Days 0    
Month to date cooling degree days 0  
Year to date cooling degree days 0  
Moisture  
Dew Point 36 °F    
Average Humidity 66    
Maximum Humidity 89    
Minimum Humidity 43    
Precipitation  
Precipitation 0.00 in 0.10 in 1.68 in (1974)
Month to date precipitation T 0.31  
Year to date precipitation T 0.31  
Since 1 July precipitation 7.77 5.36  
Sea Level Pressure  
Sea Level Pressure 30.24 in    
Wind  
Wind Speed 2 mph (NW)    
Max Wind Speed 8 mph    
Max Gust Speed 15 mph    
Visibility 10 miles    
Events      
T = Trace of Precipitation, MM = Missing Value Source: NWS Daily Summary

Daily Weather History Graph

Daily Weather History Graph

Search for Another Location

Airport:

Trip Planner

Search our weather history database for the weather conditions in past years. The results will help you decide how hot, cold, wet, or windy it might be!

Date:

Astronomy

Jan. 03, 2013 Rise Set
Actual Time 7:22 AM PST 5:03 PM PST
Civil Twilight 6:53 AM PST 5:32 PM PST
Nautical Twilight 6:21 AM PST 6:04 PM PST
Astronomical Twilight 5:49 AM PST 6:36 PM PST
Moon 11:35 PM PST (1/3) 10:45 AM PST (1/3)
Length of Visible Light 10h 38m
Length of Day
9h 40m
Waning Gibbous, 64% of the Moon is Illuminated
Jan 3
Waning Gibbous
Jan 4
Last Quarter
Jan 11
New
Jan 18
First Quarter
Jan 26
Full

Hourly Weather History & Observations

Time (PST) Temp. Windchill Dew Point Humidity Pressure Visibility Wind Dir Wind Speed Gust Speed Precip Events Conditions
12:56 AM 37.0 °F - 33.1 °F 86% 30.20 in 10.0 mi Calm Calm - N/A   Clear
1:56 AM 37.0 °F - 33.1 °F 86% 30.21 in 10.0 mi Calm Calm - N/A   Clear
2:56 AM 36.0 °F - 32.0 °F 86% 30.20 in 10.0 mi Calm Calm - N/A   Clear
3:56 AM 35.1 °F - 32.0 °F 89% 30.19 in 10.0 mi Calm Calm - N/A   Clear
4:56 AM 34.0 °F 31.0 °F 30.9 °F 89% 30.19 in 10.0 mi SSE 3.5 mph - N/A   Clear
5:56 AM 36.0 °F - 32.0 °F 86% 30.21 in 10.0 mi Calm Calm - N/A   Clear
6:56 AM 34.0 °F - 30.9 °F 89% 30.22 in 10.0 mi Calm Calm - N/A   Clear
7:56 AM 34.0 °F - 30.0 °F 85% 30.23 in 10.0 mi Calm Calm - N/A   Clear
8:56 AM 39.0 °F - 34.0 °F 82% 30.25 in 10.0 mi Calm Calm - N/A   Clear
9:56 AM 44.1 °F - 37.0 °F 76% 30.27 in 10.0 mi Calm Calm - N/A   Clear
10:56 AM 46.9 °F - 37.9 °F 71% 30.26 in 10.0 mi North 3.5 mph - N/A   Clear
11:56 AM 48.9 °F - 36.0 °F 61% 30.25 in 10.0 mi North 5.8 mph - N/A   Clear
12:56 PM 51.1 °F - 37.0 °F 59% 30.23 in 10.0 mi North 5.8 mph - N/A   Clear
1:56 PM 54.0 °F - 36.0 °F 51% 30.22 in 10.0 mi NNW 3.5 mph - N/A   Clear
2:56 PM 55.9 °F - 36.0 °F 47% 30.22 in 10.0 mi Calm Calm - N/A   Clear
3:56 PM 57.0 °F - 36.0 °F 45% 30.22 in 10.0 mi Calm Calm - N/A   Clear
4:56 PM 48.9 °F - 42.1 °F 77% 30.23 in 8.0 mi North 5.8 mph - N/A   Clear
5:56 PM 48.9 °F - 42.1 °F 77% 30.25 in 10.0 mi Calm Calm - N/A   Clear
6:56 PM 46.9 °F - 39.9 °F 77% 30.26 in 10.0 mi Calm Calm - N/A   Clear
7:56 PM 46.0 °F - 39.0 °F 76% 30.27 in 10.0 mi Calm Calm - N/A   Clear
8:56 PM 45.0 °F 41.8 °F 37.9 °F 76% 30.28 in 10.0 mi West 5.8 mph - N/A   Clear
9:56 PM 44.1 °F - 37.9 °F 79% 30.28 in 10.0 mi Calm Calm - N/A   Clear
10:56 PM 42.1 °F 40.2 °F 37.0 °F 82% 30.29 in 9.0 mi West 3.5 mph - N/A   Clear
11:56 PM 42.1 °F - 37.9 °F 85% 30.28 in 7.0 mi Calm Calm - N/A   Clear